Weather in Pato Branco

Brazil     26°13′37″S   52°40′45″W
temp.,
°C
wind,
m/s
gust,
m/s
humid.,
%
clouds,
%
prec.,
mm/h
press.,
hPa
HPBL,
m
7 may, fri
fri700:00+10s499598 0.0 1022554
03:00+8sse39940 0.1 1021380
06:00+6sse29978 0.0 1022252
09:00+9sse36810 0.0 1023315
12:00+15sse35480 0.0 1022731
15:00+17s34400 0.0 1020965
18:00+12s310600 0.0 1021278
21:00+9sse311690 0.0 1023244
8 may, sat
sat800:00+8se36670 0.0 1024125
03:00+8ese22890 0.0 102336
06:00+8ese22961 0.0 102325
09:00+13ene25763 0.0 1025305
12:00+20nne34520 0.0 10241102
15:00+21nne23430 0.0 10211639
18:00+15s11650 0.0 102211
21:00+12ese311740 0.0 1023223
9 may, sun
sun900:00+11e310850 0.0 1024227
03:00+10e27890 0.0 1023155
06:00+9e27900 0.0 1023135
09:00+14ene37670 0.0 1024283
12:00+22nne34460 0.0 1022806
15:00+23n12450 0.0 10191389
18:00+17ssw11680 0.0 102012
21:00+13e298313 0.0 1022179
10 may, mon
mon1000:00+12e28871 0.0 1022150
03:00+12ene24911 0.0 102276
06:00+12ene129198 0.0 102122
09:00+17ne246720 0.0 1022189
12:00+23n334759 0.0 1020753
15:00+25wnw23410 0.0 10181402
18:00+19sse11635 0.0 101711
21:00+17sse11672 0.0 101811
11 may, tue
tue1100:00+16e11715 0.0 101811
03:00+14e11785 0.0 101710
06:00+13ene11808 0.0 101711
09:00+18ne126488 0.0 1018123
12:00+21nnw2362100 0.0 1017260
15:00+25nw234657 0.0 10141320
18:00+19nnw117398 0.0 101411
21:00+18ssw2377100 0.1 101659